Weather History for Memphis, TN

Change the Weather History Date:

Thursday, January 10, 2013

  Actual Average Record
Temperature  
Mean Temperature 62 °F 41 °F  
Max Temperature 68 °F 49 °F 75 °F (1890)
Min Temperature 56 °F 32 °F -2 °F (1886)
Degree Days  
Heating Degree Days 3 24  
Month to date heating degree days 224 240  
Since 1 July heating degree days 1251 1404  
Cooling Degree Days 0 0  
Month to date cooling degree days 0 0  
Year to date cooling degree days 0 0  
Growing Degree Days 11 (Base 50)    
Moisture  
Dew Point 60 °F    
Average Humidity 89    
Maximum Humidity 97    
Minimum Humidity 81    
Precipitation  
Precipitation 1.05 in 0.13 in 3.89 in (1974)
Month to date precipitation 2.45 1.36  
Year to date precipitation 2.45 1.36  
Snow  
Snow 0.00 in 0.10 in 3.60 in (1997)
Month to date snowfall 0.0 0.6  
Since 1 July snowfall 0.9 0.8  
Snow Depth 0.00 in    
Sea Level Pressure  
Sea Level Pressure 30.06 in    
Wind  
Wind Speed 14 mph (SSE)    
Max Wind Speed 29 mph    
Max Gust Speed 41 mph    
Visibility 6 miles    
Events Rain    
T = Trace of Precipitation, MM = Missing Value Source: NWS Daily Summary

Daily Weather History Graph

Daily Weather History Graph

Search for Another Location

Airport:

Trip Planner

Search our weather history database for the weather conditions in past years. The results will help you decide how hot, cold, wet, or windy it might be!

Date:

Astronomy

Jan. 10, 2013 Rise Set
Actual Time 7:08 AM CST 5:07 PM CST
Civil Twilight 6:40 AM CST 5:34 PM CST
Nautical Twilight 6:09 AM CST 6:06 PM CST
Astronomical Twilight 5:38 AM CST 6:36 PM CST
Moon 5:48 AM CST (1/10) 4:14 PM CST (1/10)
Length of Visible Light 10h 54m
Length of Day
9h 58m
Waning Crescent, 2% of the Moon is Illuminated
Jan 10
Waning Crescent
Jan 11
New
Jan 18
First Quarter
Jan 26
Full
Feb 3
Last Quarter

Hourly Weather History & Observations

Time (CST) Temp. Dew Point Humidity Pressure Visibility Wind Dir Wind Speed Gust Speed Precip Events Conditions
12:54 AM 57.0 °F 54.0 °F 89% 30.26 in 10.0 mi East 13.8 mph - 0.00 in   Overcast
1:54 AM 57.0 °F 54.0 °F 89% 30.26 in 8.0 mi East 12.7 mph - 0.00 in Rain Light Rain
2:54 AM 57.0 °F 55.0 °F 93% 30.22 in 6.0 mi East 12.7 mph - 0.04 in Rain Light Rain
3:54 AM 57.9 °F 55.0 °F 90% 30.18 in 4.0 mi ESE 13.8 mph 19.6 mph 0.01 in Rain Rain
4:48 AM 59.0 °F 55.4 °F 88% 30.16 in 7.0 mi ESE 15.0 mph - 0.04 in Rain Light Rain
4:54 AM 59.0 °F 55.9 °F 90% 30.15 in 7.0 mi ESE 15.0 mph 20.7 mph 0.05 in Rain Light Rain
5:01 AM 59.0 °F 55.4 °F 88% 30.15 in 7.0 mi SE 11.5 mph - 0.00 in Rain Light Rain
5:10 AM 59.0 °F 55.4 °F 88% 30.15 in 7.0 mi SE 12.7 mph 25.3 mph 0.00 in Rain Light Rain
5:38 AM 60.8 °F 57.2 °F 88% 30.14 in 7.0 mi SE 13.8 mph 20.7 mph 0.02 in Rain Light Rain
5:54 AM 60.1 °F 57.9 °F 93% 30.15 in 7.0 mi SE 15.0 mph - 0.03 in Rain Light Rain
6:27 AM 60.8 °F 57.2 °F 88% 30.17 in 7.0 mi SSE 6.9 mph - 0.00 in   Overcast
6:36 AM 60.8 °F 57.2 °F 88% 30.17 in 7.0 mi SSE 8.1 mph - 0.00 in   Overcast
6:54 AM 61.0 °F 57.9 °F 90% 30.17 in 6.0 mi SSE 10.4 mph - 0.01 in Rain Rain
7:39 AM 60.8 °F 59.0 °F 94% 30.17 in 7.0 mi SSE 11.5 mph - N/A Rain Rain
7:54 AM 61.0 °F 59.0 °F 93% 30.18 in 7.0 mi SSE 18.4 mph 25.3 mph 0.08 in Rain Light Rain
8:54 AM 62.1 °F 59.0 °F 90% 30.17 in 9.0 mi SE 15.0 mph 23.0 mph 0.01 in Rain Light Rain
9:54 AM 63.0 °F 60.1 °F 90% 30.17 in 5.0 mi SE 13.8 mph - 0.07 in Rain Light Rain
10:02 AM 62.6 °F 60.8 °F 94% 30.17 in 1.8 mi SSE 12.7 mph - 0.02 in Rain Heavy Rain
10:07 AM 62.6 °F 60.8 °F 94% 30.17 in 2.5 mi SSE 12.7 mph - 0.05 in Rain Rain
10:13 AM 62.6 °F 60.8 °F 94% 30.17 in 6.0 mi SSE 12.7 mph - 0.05 in Rain Light Rain
10:35 AM 62.6 °F 60.8 °F 94% 30.16 in 2.0 mi SSE 13.8 mph - 0.06 in Rain Light Rain
10:37 AM 62.6 °F 60.8 °F 94% 30.16 in 1.8 mi SE 12.7 mph - 0.06 in Rain Light Rain
10:44 AM 62.6 °F 60.8 °F 94% 30.16 in 2.0 mi SSE 12.7 mph - 0.12 in Rain Light Rain
10:54 AM 63.0 °F 61.0 °F 93% 30.16 in 3.0 mi SE 10.4 mph - 0.15 in Rain Rain
11:13 AM 62.6 °F 60.8 °F 94% 30.14 in 2.0 mi SE 11.5 mph - 0.05 in Rain Heavy Rain
11:24 AM 62.6 °F 60.8 °F 94% 30.14 in 4.0 mi SE 10.4 mph - 0.08 in Rain Rain
11:32 AM 62.6 °F 60.8 °F 94% 30.13 in 2.5 mi SE 11.5 mph 18.4 mph 0.08 in Rain Light Rain
11:49 AM 62.6 °F 60.8 °F 94% 30.12 in 1.5 mi SE 13.8 mph 19.6 mph 0.12 in Rain Rain
11:54 AM 63.0 °F 61.0 °F 93% 30.12 in 1.0 mi SE 12.7 mph - 0.22 in Rain Heavy Rain
12:09 PM 62.6 °F 60.8 °F 94% 30.11 in 2.0 mi SE 12.7 mph - 0.08 in Rain Heavy Rain
12:21 PM 64.4 °F 60.8 °F 88% 30.10 in 3.0 mi SE 15.0 mph 19.6 mph 0.10 in Rain Rain
12:26 PM 64.4 °F 60.8 °F 88% 30.10 in 2.5 mi SSE 12.7 mph 19.6 mph N/A Rain Light Rain
12:34 PM 64.4 °F 62.6 °F 94% 30.10 in 1.2 mi SSE 10.4 mph - 0.17 in Rain Heavy Rain
12:42 PM 64.4 °F 62.6 °F 94% 30.09 in 3.0 mi SSE 12.7 mph - 0.20 in Rain Light Rain
12:54 PM 64.0 °F 62.1 °F 93% 30.06 in 5.0 mi SE 11.5 mph - 0.22 in Rain Light Rain
1:17 PM 64.4 °F 62.6 °F 94% 29.99 in 4.0 mi ESE 20.7 mph 24.2 mph 0.01 in Rain Rain
1:31 PM 64.4 °F 62.6 °F 94% 30.00 in 9.0 mi SE 19.6 mph 25.3 mph 0.02 in Rain Light Rain
1:40 PM 64.4 °F 62.6 °F 94% 30.00 in 10.0 mi SE 15.0 mph 24.2 mph 0.02 in   Overcast
1:54 PM 66.0 °F 63.0 °F 90% 29.99 in 10.0 mi SE 16.1 mph 24.2 mph 0.02 in   Overcast
2:00 PM 66.2 °F 62.6 °F 88% 29.99 in 10.0 mi SE 16.1 mph 23.0 mph N/A   Overcast
2:10 PM 66.2 °F 62.6 °F 88% 30.00 in 10.0 mi SSE 17.3 mph 24.2 mph N/A   Overcast
2:44 PM 66.2 °F 62.6 °F 88% 29.99 in 10.0 mi SSE 18.4 mph 24.2 mph 0.00 in   Overcast
2:54 PM 66.0 °F 61.0 °F 84% 29.96 in 10.0 mi SSE 24.2 mph 36.8 mph 0.00 in   Overcast
3:33 PM 66.2 °F 60.8 °F 83% 29.90 in 10.0 mi SSE 25.3 mph 41.4 mph 0.00 in Rain Light Rain
3:40 PM 66.2 °F 60.8 °F 83% 29.93 in 10.0 mi South 19.6 mph 41.4 mph 0.00 in Rain Light Rain
3:54 PM 66.9 °F 61.0 °F 81% 29.92 in 10.0 mi South 15.0 mph 23.0 mph 0.00 in   Overcast
4:54 PM 66.0 °F 61.0 °F 84% 29.91 in 10.0 mi SSE 17.3 mph 26.5 mph N/A   Overcast
5:27 PM 66.2 °F 62.6 °F 88% 29.90 in 10.0 mi SSE 13.8 mph 23.0 mph N/A   Overcast
5:54 PM 66.9 °F 62.1 °F 84% 29.89 in 10.0 mi SSE 16.1 mph 24.2 mph N/A   Mostly Cloudy
6:54 PM 68.0 °F 62.1 °F 81% 29.91 in 10.0 mi South 21.9 mph 33.4 mph N/A   Overcast
7:11 PM 68.0 °F 62.6 °F 83% 29.93 in 10.0 mi South 20.7 mph 27.6 mph N/A   Overcast
7:54 PM 66.9 °F 62.1 °F 84% 29.96 in 4.0 mi SSW 13.8 mph 21.9 mph 0.00 in Rain Light Rain
8:20 PM 64.4 °F 62.6 °F 94% 29.97 in 4.0 mi South 13.8 mph - 0.05 in Rain Light Rain
8:33 PM 64.4 °F 62.6 °F 94% 29.98 in 6.0 mi SSW 13.8 mph - 0.05 in Rain Light Rain
8:54 PM 64.9 °F 62.1 °F 90% 29.96 in 10.0 mi SSW 10.4 mph 19.6 mph 0.06 in Rain Light Rain
9:33 PM 64.4 °F 60.8 °F 88% 29.97 in 10.0 mi SW 9.2 mph 17.3 mph 0.00 in   Overcast
9:54 PM 64.0 °F 61.0 °F 90% 29.96 in 10.0 mi SSW 10.4 mph 17.3 mph 0.00 in   Overcast
10:18 PM 64.4 °F 60.8 °F 88% 29.96 in 8.0 mi SSW 11.5 mph - 0.00 in Rain Light Rain
10:23 PM 64.4 °F 60.8 °F 88% 29.96 in 7.0 mi SSW 10.4 mph 20.7 mph 0.00 in Rain Light Rain
10:46 PM 64.4 °F 60.8 °F 88% 29.96 in 5.0 mi SSW 15.0 mph 19.6 mph 0.00 in Rain Light Rain
10:54 PM 64.4 °F 60.8 °F 88% 29.95 in 4.0 mi SSW 10.4 mph 20.7 mph N/A Rain Light Rain
11:19 PM 62.6 °F 60.8 °F 94% 29.95 in 8.0 mi SSW 15.0 mph 23.0 mph 0.01 in Rain Light Rain
11:26 PM 62.6 °F 60.8 °F 94% 29.96 in 2.0 mi SW 25.3 mph 35.7 mph 0.02 in Rain Heavy Rain
11:33 PM 60.8 °F 57.2 °F 88% 29.96 in 1.2 mi WSW 19.6 mph 35.7 mph 0.07 in Rain Light Rain
11:42 PM 60.8 °F 57.2 °F 88% 29.96 in 3.0 mi SW 17.3 mph 26.5 mph 0.07 in Rain Light Rain
11:54 PM 61.0 °F 55.0 °F 81% 29.95 in 10.0 mi SW 11.5 mph 25.3 mph 0.07 in   Overcast